New Ulm, MN

1:59 AM CST on January 19, 2017 (GMT -0600)
New Ulm Municipal

Weather History for KULM - April, 2013

Change the Weather History Date:

Monday, April 22, 2013

  Actual Average Record
Temperature  
Mean Temperature 36 °F -  
Max Temperature 39 °F 61 °F 91 °F (1980)
Min Temperature 32 °F 38 °F 25 °F (1967)
Degree Days  
Heating Degree Days 30    
Moisture  
Dew Point 32 °F    
Average Humidity 85    
Maximum Humidity 93    
Minimum Humidity 75    
Precipitation  
Precipitation 0.13 in - - ()
Sea Level Pressure  
Sea Level Pressure 30.16 in    
Wind  
Wind Speed 10 mph (North)    
Max Wind Speed 18 mph    
Max Gust Speed 26 mph    
Visibility 6 miles    
Events Rain , Snow    
Averages and records for this station are not official NWS values.
T = Trace of Precipitation, MM = Missing Value Source: NWS Daily Summary

Daily Weather History Graph

Daily Weather History Graph

Search for Another Location

Airport or City:

Trip Planner

Search our weather history database for the weather conditions in past years. The results will help you decide how hot, cold, wet, or windy it might be!

Date:

Astronomy

Apr. 22, 2013 Rise Set
Actual Time 6:22 AM CDT 8:11 PM CDT
Civil Twilight 5:51 AM CDT 8:42 PM CDT
Nautical Twilight 5:13 AM CDT 9:20 PM CDT
Astronomical Twilight 4:32 AM CDT 10:01 PM CDT
Moon 4:54 PM CDT (4/22) 4:24 AM CDT (4/22)
Length of Visible Light 14h 51m
Length of Day
13h 49m
Waxing Gibbous, 88% of the Moon is Illuminated
Apr 22
Waxing Gibbous
Apr 25
Full
May 2
Last Quarter
May 9
New
May 17
First Quarter

Hourly Weather History & Observations

Time (CDT) Temp. Windchill Dew Point Humidity Pressure Visibility Wind Dir Wind Speed Gust Speed Precip Events Conditions
12:13 AM 39.2 °F 31.6 °F 35.6 °F 87% 30.16 in 10.0 mi NNW 12.7 mph - N/A   Overcast
12:33 AM 39.2 °F 33.6 °F 35.6 °F 87% 30.16 in 10.0 mi NNW 8.1 mph - N/A   Overcast
12:52 AM 39.2 °F 33.6 °F 35.6 °F 87% 30.17 in 10.0 mi North 8.1 mph - N/A   Overcast
1:13 AM 39.2 °F 35.0 °F 35.6 °F 87% 30.16 in 10.0 mi North 5.8 mph - N/A   Overcast
1:33 AM 39.2 °F 34.2 °F 35.6 °F 87% 30.16 in 10.0 mi North 6.9 mph - N/A   Overcast
1:52 AM 39.2 °F 35.9 °F 33.8 °F 81% 30.17 in 10.0 mi North 4.6 mph - N/A   Mostly Cloudy
2:13 AM 39.2 °F 33.0 °F 33.8 °F 81% 30.17 in 10.0 mi NNW 9.2 mph - N/A   Overcast
2:33 AM 37.4 °F 34.9 °F 33.8 °F 87% 30.17 in 10.0 mi North 3.5 mph - N/A   Overcast
2:52 AM 37.4 °F 34.9 °F 33.8 °F 87% 30.18 in 10.0 mi North 3.5 mph - N/A   Overcast
3:13 AM 37.4 °F 32.8 °F 32.0 °F 81% 3.01 in 10.0 mi North 5.8 mph - N/A   Overcast
3:33 AM 37.4 °F 34.9 °F 33.8 °F 87% 30.17 in 10.0 mi North 3.5 mph - N/A   Overcast
3:53 AM 37.4 °F 31.4 °F 33.8 °F 87% 30.16 in 10.0 mi North 8.1 mph - N/A   Overcast
4:12 AM 37.4 °F 32.1 °F 33.8 °F 87% 30.16 in 10.0 mi North 6.9 mph - N/A   Overcast
4:53 AM 37.4 °F 33.8 °F 32.0 °F 81% 30.17 in 10.0 mi North 4.6 mph - N/A   Overcast
5:13 AM 37.4 °F 33.8 °F 32.0 °F 81% 30.17 in 10.0 mi North 4.6 mph - N/A   Overcast
5:32 AM 35.6 °F 30.7 °F 32.0 °F 87% 30.17 in 10.0 mi North 5.8 mph - N/A   Overcast
5:53 AM 35.6 °F 31.7 °F 30.2 °F 81% 30.17 in 10.0 mi North 4.6 mph - N/A   Overcast
6:13 AM 35.6 °F 28.0 °F 30.2 °F 81% 30.17 in 10.0 mi NNE 10.4 mph - N/A   Overcast
6:32 AM 35.6 °F 29.2 °F 30.2 °F 81% 30.17 in 10.0 mi North 8.1 mph - N/A   Overcast
6:53 AM 35.6 °F 28.6 °F 30.2 °F 81% 30.18 in 10.0 mi North 9.2 mph - N/A   Overcast
7:13 AM 35.6 °F 29.9 °F 30.2 °F 81% 30.18 in 10.0 mi NNE 6.9 mph - N/A   Overcast
7:32 AM 35.6 °F 28.0 °F 30.2 °F 81% 30.17 in 10.0 mi NNE 10.4 mph - N/A   Overcast
7:53 AM 35.6 °F 28.0 °F 30.2 °F 81% 30.17 in 10.0 mi NE 10.4 mph - N/A   Overcast
8:13 AM 35.6 °F 27.5 °F 30.2 °F 81% 30.17 in 10.0 mi NE 11.5 mph 17.3 mph N/A   Overcast
8:32 AM 35.6 °F 27.5 °F 30.2 °F 81% 30.17 in 10.0 mi ENE 11.5 mph - N/A   Overcast
8:53 AM 37.4 °F 32.1 °F 30.2 °F 75% 30.17 in 10.0 mi NE 6.9 mph 11.5 mph N/A   Mostly Cloudy
9:12 AM 37.4 °F 29.3 °F 30.2 °F 75% 30.17 in 10.0 mi NE 12.7 mph - N/A   Mostly Cloudy
9:33 AM 37.4 °F 28.9 °F 30.2 °F 75% 30.17 in 10.0 mi NE 13.8 mph 17.3 mph N/A   Mostly Cloudy
9:53 AM 37.4 °F 30.8 °F 30.2 °F 75% 30.20 in 10.0 mi NE 9.2 mph - N/A   Scattered Clouds
10:12 AM 37.4 °F 29.3 °F 30.2 °F 75% 30.19 in 10.0 mi NE 12.7 mph - N/A   Scattered Clouds
10:33 AM 37.4 °F 28.9 °F 30.2 °F 75% 30.18 in 10.0 mi NE 13.8 mph - N/A   Mostly Cloudy
10:53 AM 37.4 °F 29.3 °F 30.2 °F 75% 30.18 in 10.0 mi NE 12.7 mph - N/A   Mostly Cloudy
11:12 AM 37.4 °F 28.9 °F 30.2 °F 75% 30.16 in 10.0 mi NNE 13.8 mph 17.3 mph N/A   Mostly Cloudy
11:33 AM 39.2 °F 31.6 °F 32.0 °F 75% 30.15 in 10.0 mi NE 12.7 mph - N/A   Mostly Cloudy
11:53 AM 39.2 °F 31.6 °F 32.0 °F 75% 30.14 in 10.0 mi NE 12.7 mph 19.6 mph N/A   Mostly Cloudy
12:12 PM 39.2 °F 32.0 °F 32.0 °F 75% 30.15 in 10.0 mi NE 11.5 mph - N/A   Overcast
12:33 PM 37.4 °F 31.4 °F 32.0 °F 81% 30.14 in 10.0 mi North 8.1 mph - N/A Rain Rain
12:53 PM 37.4 °F 29.8 °F 33.8 °F 87% 30.13 in 7.0 mi NNE 11.5 mph 18.4 mph N/A Rain Light Rain
1:12 PM 37.4 °F 32.8 °F 33.8 °F 87% 30.15 in 4.0 mi North 5.8 mph - 0.01 in Rain Rain
1:33 PM 35.6 °F 30.7 °F 32.0 °F 87% 30.15 in 2.5 mi North 5.8 mph - 0.05 in   Mostly Cloudy
1:53 PM 35.6 °F 29.9 °F 32.0 °F 87% 30.14 in 2.0 mi North 6.9 mph - 0.06 in   Overcast
2:12 PM 35.6 °F 28.6 °F 32.0 °F 87% 30.14 in 4.0 mi North 9.2 mph 16.1 mph 0.01 in Snow Light Snow
2:33 PM 35.6 °F 28.6 °F 33.8 °F 93% 30.14 in 3.0 mi NNE 9.2 mph - 0.01 in   Scattered Clouds
2:53 PM 35.6 °F 28.0 °F 33.8 °F 93% 30.13 in 3.0 mi North 10.4 mph 17.3 mph 0.02 in Snow Light Snow
3:12 PM 35.6 °F 29.2 °F 33.8 °F 93% 30.12 in 4.0 mi North 8.1 mph 17.3 mph N/A Snow Light Snow
3:33 PM 35.6 °F 27.5 °F 33.8 °F 93% 30.11 in 3.0 mi North 11.5 mph 19.6 mph 0.01 in Snow Light Snow
3:53 PM 35.6 °F 27.1 °F 32.0 °F 87% 30.12 in 2.5 mi NNE 12.7 mph 20.7 mph 0.02 in Snow Light Snow
4:12 PM 33.8 °F 24.3 °F 32.0 °F 93% 30.12 in 2.0 mi NNE 13.8 mph 19.6 mph N/A Snow Light Snow
4:33 PM 33.8 °F 23.9 °F 32.0 °F 93% 30.12 in 3.0 mi NNE 15.0 mph 21.9 mph N/A Snow Light Snow
4:53 PM 33.8 °F 25.8 °F 32.0 °F 93% 30.12 in 2.5 mi North 10.4 mph 20.7 mph 0.01 in Snow Light Snow
5:12 PM 33.8 °F 24.3 °F 32.0 °F 93% 30.12 in 2.0 mi North 13.8 mph 23.0 mph N/A Snow Light Snow
5:33 PM 33.8 °F 25.3 °F 32.0 °F 93% 30.12 in 1.8 mi North 11.5 mph 17.3 mph N/A Snow Light Snow
5:53 PM 33.8 °F 26.4 °F 32.0 °F 93% 30.13 in 1.0 mi North 9.2 mph 18.4 mph N/A Snow Light Snow
6:12 PM 33.8 °F 25.8 °F 30.2 °F 87% 30.13 in 0.5 mi North 10.4 mph 20.7 mph N/A Snow Light Snow
6:33 PM 33.8 °F 25.8 °F 30.2 °F 87% 30.14 in 0.8 mi North 10.4 mph 21.9 mph N/A Snow Light Snow
6:53 PM 33.8 °F 25.3 °F 30.2 °F 87% 30.14 in 0.5 mi North 11.5 mph 24.2 mph 0.01 in Snow Snow
7:13 PM 33.8 °F 25.3 °F 30.2 °F 87% 30.13 in 1.0 mi North 11.5 mph 17.3 mph N/A Snow Light Snow
7:33 PM 33.8 °F 24.8 °F 30.2 °F 87% 30.13 in 0.8 mi North 12.7 mph 20.7 mph N/A Snow Light Snow
7:52 PM 33.8 °F 25.3 °F 30.2 °F 87% 30.13 in 1.0 mi North 11.5 mph 20.7 mph N/A Snow Snow
8:13 PM 32.0 °F 24.2 °F 30.2 °F 93% 30.14 in 1.0 mi North 9.2 mph 18.4 mph 0.01 in Snow Snow
8:33 PM 32.0 °F 23.0 °F 30.2 °F 93% 30.14 in 1.2 mi North 11.5 mph 19.6 mph 0.01 in Snow Light Snow
8:52 PM 32.0 °F 22.1 °F 30.2 °F 93% 30.16 in 1.2 mi North 13.8 mph 23.0 mph 0.01 in Snow Light Snow
9:13 PM 32.0 °F 22.1 °F 30.2 °F 93% 30.16 in 1.2 mi North 13.8 mph 21.9 mph N/A Snow Light Snow
9:33 PM 32.0 °F 20.8 °F 30.2 °F 93% 30.17 in 1.2 mi North 17.3 mph 23.0 mph N/A Snow Light Snow
9:52 PM 32.0 °F 20.8 °F 30.2 °F 93% 30.18 in 1.8 mi NNW 17.3 mph 21.9 mph N/A Snow Light Snow
10:13 PM 32.0 °F 21.2 °F 30.2 °F 93% 30.18 in 4.0 mi NNW 16.1 mph 25.3 mph N/A Snow Light Snow
10:33 PM 32.0 °F 21.6 °F 30.2 °F 93% 30.18 in 4.0 mi North 15.0 mph 26.5 mph N/A Snow Light Snow
10:53 PM 32.0 °F 21.2 °F 30.2 °F 93% 30.18 in 3.0 mi NNW 16.1 mph 26.5 mph N/A Snow Light Snow
11:12 PM 32.0 °F 21.6 °F 28.4 °F 87% 30.18 in 2.5 mi NNW 15.0 mph 24.2 mph N/A Snow Light Snow
11:33 PM 32.0 °F 20.5 °F 28.4 °F 87% 30.17 in 4.0 mi NNW 18.4 mph 23.0 mph N/A Snow Light Snow
11:53 PM 32.0 °F 21.2 °F 28.4 °F 87% 30.18 in 5.0 mi North 16.1 mph 26.5 mph N/A Snow Light Snow